Oakland, CA

1:53 PM PDT on June 21, 2018 (GMT -0700)
Metro Oakland International

Weather History for KOAK - October, 2017

Change the Weather History Date:

Saturday, October 7, 2017

  Actual Average Record
Temperature  
Mean Temperature 64 °F 62 °F  
Max Temperature 78 °F 71 °F 87 °F (2002)
Min Temperature 50 °F 53 °F 42 °F (2011)
Degree Days  
Heating Degree Days 1 4  
Month to date heating degree days 15 23  
Since 1 July heating degree days 88 223  
Cooling Degree Days 0 1  
Month to date cooling degree days 0 7  
Year to date cooling degree days 290 132  
Growing Degree Days 14 (Base 50)    
Moisture  
Dew Point 52 °F    
Average Humidity 67    
Maximum Humidity 100    
Minimum Humidity 33    
Precipitation  
Precipitation 0.00 in 0.03 in 0.58 in (1973)
Month to date precipitation 0.00 0.14  
Year to date precipitation 20.12 13.64  
Sea Level Pressure  
Sea Level Pressure 29.89 in    
Wind  
Wind Speed 6 mph (WNW)    
Max Wind Speed 15 mph    
Max Gust Speed 18 mph    
Visibility 10 miles    
Events Fog    
T = Trace of Precipitation, MM = Missing Value Source: NWS Daily Summary

Daily Weather History Graph

Daily Weather History Graph

Search for Another Location

Airport or City:

Astronomy

Oct. 07, 2017 Rise Set
Actual Time 7:10 AM PDT 6:42 PM PDT
Civil Twilight 6:43 AM PDT 7:08 PM PDT
Nautical Twilight 6:13 AM PDT 7:38 PM PDT
Astronomical Twilight 5:43 AM PDT 8:09 PM PDT
Moon 8:26 PM PDT (10/7) 9:08 AM PDT (10/7)
Length of Visible Light 12h 24m
Length of Day
11h 32m
Waning Gibbous, 95% of the Moon is Illuminated
Oct 7
Waning Gibbous
Oct 12
Last Quarter
Oct 19
New
Oct 27
First Quarter
Nov 3
Full

Hourly Weather History & Observations

Time (PDT) Temp. Dew Point Humidity Pressure Visibility Wind Dir Wind Speed Gust Speed Precip Events Conditions
12:53 AM 57.9 °F 51.1 °F 78% 29.96 in 10.0 mi Calm Calm - N/A   Clear
1:53 AM 53.1 °F 48.9 °F 86% 29.95 in 10.0 mi Calm Calm - N/A   Partly Cloudy
2:53 AM 55.9 °F 48.0 °F 75% 29.94 in 10.0 mi North 3.5 mph - N/A   Partly Cloudy
3:53 AM 53.1 °F 46.9 °F 80% 29.94 in 10.0 mi NNW 3.5 mph - N/A   Partly Cloudy
4:53 AM 53.1 °F 51.1 °F 93% 29.93 in 10.0 mi Calm Calm - N/A   Clear
5:53 AM 52.0 °F 51.1 °F 97% 29.92 in 10.0 mi Calm Calm - N/A   Clear
6:53 AM 50.0 °F 50.0 °F 100% 29.92 in 10.0 mi Calm Calm - N/A Fog Shallow Fog
7:53 AM 52.0 °F 52.0 °F 100% 29.93 in 10.0 mi Calm Calm - N/A Fog Shallow Fog
8:53 AM 60.1 °F 55.9 °F 86% 29.94 in 10.0 mi Calm Calm - N/A   Clear
9:53 AM 64.9 °F 54.0 °F 68% 29.95 in 10.0 mi West 4.6 mph - N/A   Clear
10:53 AM 69.1 °F 50.0 °F 51% 29.94 in 10.0 mi West 4.6 mph - N/A   Partly Cloudy
11:53 AM 72.0 °F 53.1 °F 51% 29.92 in 10.0 mi WNW 6.9 mph - N/A   Partly Cloudy
12:53 PM 75.0 °F 45.0 °F 34% 29.91 in 10.0 mi NW 10.4 mph - N/A   Partly Cloudy
1:53 PM 77.0 °F 46.0 °F 33% 29.88 in 10.0 mi WNW 10.4 mph - N/A   Partly Cloudy
2:53 PM 75.0 °F 50.0 °F 41% 29.87 in 10.0 mi West 11.5 mph - N/A   Partly Cloudy
3:53 PM 70.0 °F 54.0 °F 57% 29.86 in 10.0 mi West 11.5 mph - N/A   Partly Cloudy
4:53 PM 68.0 °F 53.1 °F 59% 29.84 in 10.0 mi West 11.5 mph - N/A   Partly Cloudy
6:53 PM 62.1 °F 54.0 °F 75% 29.83 in 10.0 mi West 10.4 mph - N/A   Partly Cloudy
7:53 PM 61.0 °F 55.0 °F 81% 29.83 in 10.0 mi West 8.1 mph - N/A   Partly Cloudy
8:53 PM 57.9 °F 54.0 °F 87% 29.83 in 10.0 mi WNW 4.6 mph - N/A   Partly Cloudy
9:53 PM 59.0 °F 54.0 °F 83% 29.83 in 10.0 mi West 4.6 mph - N/A   Clear
10:53 PM 57.9 °F 55.0 °F 90% 29.83 in 9.0 mi West 10.4 mph - N/A   Clear
11:53 PM 57.0 °F 54.0 °F 89% 29.83 in 9.0 mi Calm Calm - N/A   Clear